Flag for Malaysia Weather past 2 weeks in Kuantan, Malaysia

Now
79 °F

Light rain. Broken clouds.


Feels Like: 83 °F
Forecast: 79 / 88 °F
Wind: 5 mph from Northwest

Location: Kuantan (Afb)

Current Time: Mar 31, 2015 at 6:32:38 PM

Latest Report: Mar 31, 2015 at 6:00 PM


Visibility: 6 mi

Pressure: 29.80 "Hg

Humidity: 94%

Dew point: 77 °F

Location of KuantanLocation

Historic Weather in Kuantan — Graph

°F

Kuantan temperature yesterday

Maximum temperature yesterday: 88 °F (at 4:00 PM)
Minimum temperature yesterday: 77 °F (at 3:00 AM)
Average temperature yesterday: 81 °F

Past Weeks' High & Low Weather Summary

 TemperatureHumidityPressure
High93 °F (Mar 19, 1:00 PM)100% (Mar 21, 4:00 AM)29.98 "Hg (Mar 21, 4:00 AM)
Low75 °F (Mar 17, 7:00 AM)63% (Mar 19, 1:00 PM)29.74 "Hg (Mar 18, 4:00 PM)
Average82 °F83%29.86 "Hg
* Reported Mar 16 5:00 PM — Mar 31 5:00 PM, Kuantan, Weather by CustomWeather, © 2015

Note: Actual official high and low records may vary slightly from our data, if they occured in-between our weather recording intervals... More about our weather records

Advertising

Kuantan weather history for previous 24 hours

 ConditionsComfort  
Time TempWeatherWind HumidityBarometerVisibility
5:00 PM
Tue, Mar 31
82 °FScattered showers. Broken clouds.12 mph84%29.77 "Hg5 mi
4:00 PM84 °FBroken clouds.3 mph84%29.80 "HgN/A
3:00 PM82 °FSprinkles. Broken clouds.6 mph89%29.80 "Hg5 mi
2:00 PM84 °FBroken clouds.9 mph79%29.83 "HgN/A
1:00 PM84 °FBroken clouds.9 mph79%29.86 "Hg5 mi
12:00 PM86 °FLight rain. Broken clouds.3 mph79%29.89 "HgN/A
11:00 AM82 °FLight rain. Broken clouds.No wind89%29.92 "Hg4 mi
10:00 AM82 °FBroken clouds.3 mph89%29.89 "HgN/A
9:00 AM79 °FBroken clouds.No wind94%29.89 "HgN/A
8:00 AM77 °FBroken clouds.No wind100%29.83 "Hg5 mi
7:00 AM77 °FPartly cloudy.No wind94%29.83 "Hg4 mi
6:00 AM77 °FPartly cloudy.No wind94%29.80 "Hg4 mi
5:00 AM77 °FPartly cloudy.No wind100%29.80 "Hg5 mi
4:00 AM77 °FLight rain. Partly cloudy.No wind100%29.80 "Hg5 mi
3:00 AM77 °FLight rain. Partly cloudy.No wind100%29.83 "Hg5 mi
2:00 AM77 °FPartly cloudy.No wind100%29.86 "Hg5 mi
1:00 AM79 °FLight rain. Partly cloudy.No wind94%29.89 "Hg6 mi
12:00 AM79 °FPartly cloudy.No wind94%29.89 "HgN/A
11:00 PM
Mon, Mar 30
79 °FPartly cloudy.2 mph94%29.89 "HgN/A
10:00 PM79 °FPartly cloudy.1 mph94%29.89 "HgN/A
9:00 PM79 °FLight rain. Partly cloudy.3 mph94%29.86 "HgN/A
8:00 PM81 °FPassing clouds.3 mph89%29.83 "HgN/A
7:00 PM84 °FPartly sunny.3 mph79%29.80 "HgN/A
6:00 PM88 °FPartly sunny.7 mph70%29.77 "HgN/A
Weather by CustomWeather, © 2015

See weather overviewHow to use our weather pages